When you browse on this site, cookies collect data to enhance your experience and personalize the content and advertising you see.
Visit our Privacy Policy to learn more. By continuing to use the site, you agree to this use of cookies and data.
  • In Austria
  • List of Countries
  • For 7 days
  • Water Temperature
  • Satellite Maps
  • Weather Map
  • News
  • Weather Widgets
  • user-avatar
    Login

    Hourly Weather Igls

    Today, 25 May, Saturday

    Time Temperature Precipitation Wind Pressure Humidity
    00:00 +10°C° 0.1 mm 1 mps 682 mmHg 93%
    01:00 +10°C° 0.1 mm 1 mps 682 mmHg 93%
    02:00 +10°C° 0 mm 1 mps 682 mmHg 93%
    03:00 +10°C° 0 mm 1 mps 682 mmHg 92%
    04:00 +9°C° 0 mm 1 mps 682 mmHg 92%
    05:00 +11°C° 0 mm 1 mps 683 mmHg 86%
    06:00 +12°C° 0 mm 0 mps 683 mmHg 80%
    07:00 +14°C° 0 mm 0 mps 684 mmHg 73%
    08:00 +15°C° 0.1 mm 0 mps 684 mmHg 67%
    09:00 +19°C° 0.1 mm 1 mps 684 mmHg 61%
    10:00 +20°C° 0.1 mm 1 mps 684 mmHg 55%
    11:00 +20°C° 0.5 mm 1 mps 684 mmHg 57%
    12:00 +19°C° 0.5 mm 1 mps 684 mmHg 60%
    13:00 +19°C° 0.5 mm 1 mps 684 mmHg 63%
    14:00 +18°C° 0.8 mm 1 mps 684 mmHg 69%
    15:00 +18°C° 0.8 mm 1 mps 683 mmHg 76%
    16:00 +16°C° 0.8 mm 1 mps 683 mmHg 83%
    17:00 +15°C° 1.4 mm 1 mps 683 mmHg 88%
    18:00 +14°C° 1.4 mm 1 mps 683 mmHg 92%
    19:00 +13°C° 1.4 mm 1 mps 683 mmHg 96%
    20:00 +12°C° 1.4 mm 1 mps 683 mmHg 96%
    21:00 +12°C° 1.4 mm 1 mps 683 mmHg 96%
    22:00 +10°C° 1.4 mm 0 mps 684 mmHg 96%
    23:00 +10°C° 0.8 mm 0 mps 683 mmHg 96%

    Tomorrow, 26 May, Sunday

    Time Temperature Precipitation Wind Pressure Humidity
    00:00 +10°C° 0.8 mm 0 mps 683 mmHg 95%
    01:00 +10°C° 0.8 mm 0 mps 683 mmHg 95%
    02:00 +9°C° 0.2 mm 0 mps 683 mmHg 95%
    03:00 +9°C° 0.2 mm 0 mps 683 mmHg 94%
    04:00 +9°C° 0.2 mm 0 mps 683 mmHg 94%
    05:00 +10°C° 0 mm 0 mps 683 mmHg 92%
    06:00 +11°C° 0 mm 0 mps 684 mmHg 90%
    07:00 +12°C° 0 mm 0 mps 684 mmHg 88%
    08:00 +14°C° 0.1 mm 1 mps 684 mmHg 83%
    09:00 +15°C° 0.1 mm 1 mps 684 mmHg 78%
    10:00 +18°C° 0.1 mm 1 mps 684 mmHg 72%
    11:00 +18°C° 0.3 mm 1 mps 684 mmHg 70%
    12:00 +19°C° 0.3 mm 1 mps 684 mmHg 68%
    13:00 +20°C° 0.3 mm 1 mps 684 mmHg 65%
    14:00 +20°C° 0.6 mm 1 mps 684 mmHg 70%
    15:00 +19°C° 0.6 mm 1 mps 684 mmHg 74%
    16:00 +19°C° 0.6 mm 1 mps 683 mmHg 78%
    17:00 +18°C° 0.6 mm 1 mps 683 mmHg 83%
    18:00 +16°C° 0.6 mm 1 mps 683 mmHg 87%
    19:00 +15°C° 0.6 mm 1 mps 683 mmHg 92%
    20:00 +13°C° 0.3 mm 0 mps 683 mmHg 94%
    21:00 +13°C° 0.3 mm 0 mps 683 mmHg 95%
    22:00 +12°C° 0.3 mm 0 mps 683 mmHg 97%
    23:00 +12°C° 0.2 mm 0 mps 683 mmHg 96%

    Day after tomorrow, 27 May, Monday

    Time Temperature Precipitation Wind Pressure Humidity
    00:00 +11°C° 0.2 mm 0 mps 683 mmHg 96%
    01:00 +11°C° 0.2 mm 0 mps 683 mmHg 96%
    02:00 +11°C° 0.1 mm 0 mps 682 mmHg 96%
    03:00 +11°C° 0.1 mm 0 mps 682 mmHg 96%
    04:00 +11°C° 0.1 mm 0 mps 682 mmHg 96%
    05:00 +11°C° 0.1 mm 0 mps 682 mmHg 95%
    06:00 +13°C° 0.1 mm 1 mps 682 mmHg 93%
    07:00 +14°C° 0.1 mm 1 mps 682 mmHg 92%
    08:00 +15°C° 0.1 mm 1 mps 682 mmHg 88%
    09:00 +16°C° 0.1 mm 1 mps 682 mmHg 84%
    10:00 +18°C° 0.1 mm 1 mps 682 mmHg 80%
    11:00 +18°C° 0.3 mm 2 mps 682 mmHg 77%
    12:00 +18°C° 0.3 mm 2 mps 681 mmHg 75%
    13:00 +19°C° 0.3 mm 2 mps 681 mmHg 72%
    14:00 +18°C° 0.5 mm 2 mps 681 mmHg 76%
    15:00 +18°C° 0.5 mm 2 mps 680 mmHg 81%
    16:00 +17°C° 0.5 mm 2 mps 680 mmHg 85%
    17:00 +16°C° 0.7 mm 2 mps 680 mmHg 88%
    18:00 +16°C° 0.7 mm 2 mps 680 mmHg 92%
    19:00 +15°C° 0.7 mm 1 mps 679 mmHg 96%
    20:00 +14°C° 1.8 mm 1 mps 679 mmHg 96%
    21:00 +14°C° 1.8 mm 1 mps 679 mmHg 97%
    22:00 +13°C° 1.8 mm 1 mps 679 mmHg 98%
    23:00 +13°C° 1.9 mm 1 mps 679 mmHg 98%

    28 May, Tuesday

    Time Temperature Precipitation Wind Pressure Humidity
    00:00 +13°C° 1.9 mm 1 mps 679 mmHg 98%
    01:00 +13°C° 1.9 mm 1 mps 678 mmHg 98%
    02:00 +12°C° 1.8 mm 1 mps 678 mmHg 98%
    03:00 +12°C° 1.8 mm 1 mps 677 mmHg 98%
    04:00 +12°C° 1.8 mm 1 mps 677 mmHg 97%
    05:00 +12°C° 1.6 mm 1 mps 677 mmHg 97%
    06:00 +12°C° 1.6 mm 1 mps 677 mmHg 97%
    07:00 +12°C° 1.6 mm 1 mps 677 mmHg 96%
    08:00 +12°C° 1.7 mm 1 mps 677 mmHg 97%
    09:00 +12°C° 1.7 mm 1 mps 677 mmHg 97%
    10:00 +10°C° 1.7 mm 2 mps 677 mmHg 98%
    11:00 +10°C° 1.1 mm 2 mps 678 mmHg 97%
    12:00 +10°C° 1.1 mm 2 mps 678 mmHg 97%
    13:00 +10°C° 1.1 mm 2 mps 678 mmHg 97%
    14:00 +10°C° 0.6 mm 2 mps 678 mmHg 96%
    15:00 +10°C° 0.6 mm 2 mps 678 mmHg 95%
    16:00 +12°C° 0.6 mm 2 mps 678 mmHg 93%
    17:00 +10°C° 0.6 mm 2 mps 679 mmHg 94%
    18:00 +10°C° 0.6 mm 2 mps 679 mmHg 95%
    19:00 +9°C° 0.6 mm 2 mps 679 mmHg 97%
    20:00 +9°C° 0.6 mm 2 mps 679 mmHg 97%
    21:00 +9°C° 0.6 mm 2 mps 680 mmHg 98%
    22:00 +8°C° 0.6 mm 2 mps 680 mmHg 98%
    23:00 +8°C° 1.1 mm 2 mps 680 mmHg 98%

    29 May, Wednesday

    Time Temperature Precipitation Wind Pressure Humidity
    00:00 +8°C° 1.1 mm 2 mps 680 mmHg 98%
    01:00 +8°C° 1.1 mm 2 mps 680 mmHg 98%
    02:00 +8°C° 2.1 mm 2 mps 680 mmHg 98%
    03:00 +8°C° 2.1 mm 2 mps 680 mmHg 98%
    04:00 +8°C° 2.1 mm 2 mps 680 mmHg 98%
    05:00 +8°C° 2.2 mm 2 mps 680 mmHg 98%
    06:00 +8°C° 2.2 mm 2 mps 681 mmHg 97%
    07:00 +8°C° 2.2 mm 2 mps 681 mmHg 97%
    08:00 +8°C° 0.7 mm 2 mps 682 mmHg 97%
    09:00 +8°C° 0.7 mm 2 mps 682 mmHg 96%
    10:00 +8°C° 0.7 mm 2 mps 683 mmHg 96%
    11:00 +9°C° 0.5 mm 2 mps 683 mmHg 95%
    12:00 +9°C° 0.5 mm 2 mps 684 mmHg 93%
    13:00 +10°C° 0.5 mm 2 mps 684 mmHg 91%
    14:00 +9°C° 0.6 mm 2 mps 684 mmHg 92%
    15:00 +9°C° 0.6 mm 2 mps 685 mmHg 92%
    16:00 +9°C° 0.6 mm 2 mps 685 mmHg 92%
    17:00 +9°C° 0.5 mm 2 mps 685 mmHg 94%
    18:00 +9°C° 0.5 mm 2 mps 686 mmHg 95%
    19:00 +8°C° 0.5 mm 2 mps 686 mmHg 97%
    20:00 +9°C° 0.2 mm 1 mps 687 mmHg 97%
    21:00 +9°C° 0.2 mm 1 mps 687 mmHg 98%
    22:00 +8°C° 0.2 mm 1 mps 688 mmHg 98%
    23:00 +8°C° 0.1 mm 1 mps 688 mmHg 98%

    30 May, Thursday

    Time Temperature Precipitation Wind Pressure Humidity
    00:00 +8°C° 0.1 mm 1 mps 688 mmHg 98%
    01:00 +8°C° 0.1 mm 1 mps 688 mmHg 98%
    02:00 +8°C° 0 mm 1 mps 688 mmHg 97%
    03:00 +8°C° 0 mm 1 mps 688 mmHg 97%
    04:00 +8°C° 0 mm 1 mps 688 mmHg 97%
    05:00 +8°C° 0 mm 1 mps 688 mmHg 96%
    06:00 +9°C° 0 mm 1 mps 688 mmHg 95%
    07:00 +9°C° 0 mm 1 mps 689 mmHg 93%
    08:00 +10°C° 0.1 mm 1 mps 689 mmHg 89%
    09:00 +11°C° 0.1 mm 1 mps 689 mmHg 86%
    10:00 +12°C° 0.1 mm 1 mps 689 mmHg 82%
    11:00 +12°C° 0.1 mm 1 mps 688 mmHg 80%
    12:00 +13°C° 0.1 mm 2 mps 688 mmHg 78%
    13:00 +13°C° 0.1 mm 2 mps 688 mmHg 76%
    14:00 +13°C° 0.1 mm 2 mps 688 mmHg 76%
    15:00 +13°C° 0.1 mm 2 mps 688 mmHg 76%
    16:00 +14°C° 0.1 mm 2 mps 688 mmHg 76%
    17:00 +13°C° 0.1 mm 2 mps 688 mmHg 80%
    18:00 +12°C° 0.1 mm 1 mps 688 mmHg 84%
    19:00 +12°C° 0.1 mm 1 mps 688 mmHg 88%
    20:00 +10°C° 0 mm 1 mps 688 mmHg 90%
    21:00 +9°C° 0 mm 1 mps 689 mmHg 93%
    22:00 +8°C° 0 mm 1 mps 689 mmHg 95%
    23:00 +8°C° 0 mm 1 mps 689 mmHg 93%
    Show more